Date_and_time,latitude,longitude,wind_speed,RelWindDirFrom,WindDirFrom,air_pressure,air_temperature,relative_humidity,Temp,platform_speed_wrt_ground,air_pressure_at_mean_sea_level,platform_orientation
2018-09-23 23:30,50.6304466666667,-96.98077,18.0,22.0,87,992.90,5.7,90,9.98,0.0,1020.31,360.0
2018-09-23 23:40,50.6304466666667,-96.98077,18.4,25.0,84,992.70,5.7,91,9.98,0.0,1020.10,360.0
2018-09-23 23:50,50.6304466666667,-96.98077,19.7,25.7,83,992.49,5.7,91,9.95,0.0,1019.89,360.0
2018-09-24 00:00,50.6304466666667,-96.98077,20.1,25.8,81,992.38,5.6,92,9.93,0.0,1019.78,270.0
2018-09-24 00:10,50.6304466666667,-96.98077,19.0,24.6,84,992.37,5.6,91,9.90,0.0,1019.78,270.0
2018-09-24 00:20,50.6304466666667,-96.98077,19.8,24.6,82,992.26,5.6,91,9.91,0.0,1019.67,270.0
2018-09-24 00:30,50.6304466666667,-96.98077,18.1,24.1,85,992.33,5.6,91,9.90,0.0,1019.74,270.0
2018-09-24 00:40,50.6304466666667,-96.98077,17.8,22.1,85,992.27,5.5,92,9.89,0.0,1019.68,270.0
2018-09-24 00:50,50.6304466666667,-96.9807683333333,17.6,22.3,83,992.23,5.4,93,9.87,0.0,1019.64,270.0
2018-09-24 01:00,50.6304466666667,-96.9807683333333,17.1,23.1,83,992.10,5.4,95,9.87,0.0,1019.51,360.0
2018-09-24 01:10,50.6304466666667,-96.9807683333333,17.7,22.9,81,992.00,5.4,94,9.88,0.0,1019.42,360.0
2018-09-24 01:20,50.6304766666667,-96.9807683333333,17.5,22.3,83,991.88,5.4,95,9.86,0.0,1019.29,360.0
2018-09-24 01:30,50.630455,-96.9807616666667,18.0,23.0,83,991.77,5.3,95,9.86,0.0,1019.19,360.0
2018-09-24 01:40,50.6304533333333,-96.98076,16.4,20.2,88,991.76,5.3,96,9.85,0.0,1019.18,360.0
2018-09-24 01:50,50.6304516666667,-96.98076,16.4,20.6,90,991.67,5.3,96,9.85,0.0,1019.09,360.0
2018-09-24 02:00,50.6304516666667,-96.9807616666667,17.1,21.7,95,991.67,5.4,96,9.85,0.0,1019.08,12.6
2018-09-24 02:10,50.6304533333333,-96.9807633333333,17.1,21.5,96,991.57,5.4,97,9.86,0.0,1018.98,12.6
2018-09-24 02:20,50.6304533333333,-96.980765,18.2,24.1,99,991.43,5.4,97,9.87,0.0,1018.84,12.6
2018-09-24 02:30,50.6304516666667,-96.9807666666667,17.1,21.8,97,991.28,5.3,95,9.86,0.0,1018.70,12.6
2018-09-24 02:40,50.6304516666667,-96.980765,16.2,22.2,97,991.16,5.2,95,9.87,0.0,1018.58,12.6
2018-09-24 02:50,50.6304533333333,-96.9807666666667,15.6,19.8,95,990.93,5.2,96,9.87,0.0,1018.34,12.6
2018-09-24 03:00,50.6304516666667,-96.980765,15.4,19.5,92,990.56,5.3,97,9.87,0.0,1017.96,360.0
2018-09-24 03:10,50.6304516666667,-96.980765,14.6,19.4,90,990.42,5.2,96,9.87,0.0,1017.82,360.0
2018-09-24 03:20,50.63045,-96.9807666666667,13.3,18.2,88,990.38,5.2,97,9.87,0.0,1017.78,360.0
2018-09-24 03:30,50.63045,-96.9807666666667,13.9,17.8,91,990.55,5.2,96,9.88,0.0,1017.96,360.0
2018-09-24 03:40,50.63045,-96.9807666666667,13.3,17.2,94,990.50,5.2,96,9.87,0.0,1017.90,360.0
2018-09-24 03:50,50.63045,-96.9807666666667,13.0,17.2,89,990.25,5.2,97,9.83,0.0,1017.64,360.0
2018-09-24 04:00,50.63045,-96.9807666666667,13.6,17.8,84,990.08,5.1,96,9.77,0.0,1017.47,360.0
2018-09-24 04:10,50.63045,-96.9807683333333,12.9,16.4,87,989.85,5.2,96,9.74,0.0,1017.24,360.0
2018-09-24 04:20,50.63045,-96.9807683333333,13.3,16.7,90,989.80,5.2,96,9.74,0.0,1017.19,360.0
2018-09-24 04:30,50.63045,-96.9807683333333,13.3,16.9,93,989.52,5.1,96,9.75,0.0,1016.90,360.0
2018-09-24 04:40,50.630455,-96.9808066666667,14.5,19.3,85,989.03,5.1,96,9.72,0.0,1016.40,360.0
2018-09-24 04:50,50.63045,-96.9807766666667,11.6,15.2,89,989.25,5.2,96,9.68,0.0,1016.62,360.0
2018-09-24 05:00,50.63045,-96.980775,11.2,15.8,91,989.43,5.1,96,9.68,0.0,1016.82,270.0
2018-09-24 05:10,50.6304516666667,-96.98077,10.9,14.3,91,989.30,5.0,96,9.68,0.0,1016.68,270.0
2018-09-24 05:20,50.6304516666667,-96.9807666666667,11.0,13.8,88,989.06,4.9,97,9.66,0.0,1016.44,270.0
2018-09-24 05:30,50.6304483333333,-96.9807616666667,11.5,16.8,87,988.83,5.0,97,9.63,0.0,1016.20,270.0
2018-09-24 05:40,50.6304483333333,-96.9807633333333,12.9,17.4,80,988.51,5.0,97,9.62,0.0,1015.87,270.0
2018-09-24 05:50,50.6304483333333,-96.980775,12.3,18.9,82,988.34,5.1,96,9.63,0.0,1015.70,270.0
2018-09-24 06:00,50.6304366666667,-96.9807716666667,14.3,19.2,82,987.87,5.1,95,9.63,0.0,1015.21,360.0
2018-09-24 06:10,50.6304466666667,-96.9807633333333,13.4,19.3,85,987.76,5.1,98,9.63,0.0,1015.10,360.0
2018-09-24 06:20,50.6304433333333,-96.98077,14.1,18.0,79,987.62,5.0,96,9.63,0.0,1014.96,360.0
2018-09-24 06:30,50.63044,-96.98077,13.3,18.6,80,987.58,5.1,96,9.63,0.0,1014.92,360.0
2018-09-24 06:40,50.6304416666667,-96.9807683333333,12.1,17.5,80,987.67,5.1,96,9.62,0.0,1015.01,360.0
2018-09-24 06:50,50.630445,-96.9807683333333,10.5,14.4,84,987.73,5.1,96,9.62,0.0,1015.07,360.0
2018-09-24 07:00,50.6304483333333,-96.98077,11.3,16.5,89,987.43,5.2,97,9.62,0.0,1014.77,360.0
2018-09-24 07:10,50.6304583333333,-96.98078,11.6,15.0,92,987.25,5.2,98,9.63,0.0,1014.58,360.0
2018-09-24 07:20,50.6304533333333,-96.980785,11.6,16.1,91,987.11,5.2,99,9.63,0.0,1014.43,360.0
2018-09-24 07:30,50.630455,-96.98074,12.1,16.1,93,986.99,5.3,99,9.63,0.0,1014.31,360.0
2018-09-24 07:40,50.630415,-96.9807483333333,12.2,16.4,93,986.78,5.4,99,9.64,0.0,1014.08,360.0
2018-09-24 07:50,50.630445,-96.9807683333333,12.2,15.5,94,986.53,5.4,99,9.64,0.0,1013.83,360.0
2018-09-24 08:00,50.6304466666667,-96.9807666666667,10.2,13.1,98,986.91,5.4,99,9.65,0.0,1014.21,167.4
2018-09-24 08:10,50.6304483333333,-96.9807716666667,10.3,13.6,95,986.59,5.3,99,9.65,0.0,1013.89,167.4
2018-09-24 08:20,50.6304466666667,-96.9807716666667,10.5,14.5,98,986.29,5.3,99,9.64,0.0,1013.58,167.4
2018-09-24 08:30,50.6304466666667,-96.9807666666667,10.3,14.0,91,986.03,5.4,99,9.62,0.0,1013.32,167.4
2018-09-24 08:40,50.6304466666667,-96.980765,9.5,13.5,89,985.94,5.4,99,9.63,0.0,1013.22,167.4
2018-09-24 08:50,50.6304466666667,-96.980765,8.6,11.0,79,985.93,5.3,99,9.64,0.0,1013.20,167.4
2018-09-24 09:00,50.6304466666667,-96.9807633333333,8.8,11.2,85,985.91,5.3,99,9.64,0.0,1013.19,14.5
2018-09-24 09:10,50.6304466666667,-96.9807633333333,8.3,10.4,86,985.90,5.3,99,9.64,0.0,1013.17,14.5
2018-09-24 09:20,50.6304466666667,-96.9807633333333,8.9,11.4,82,985.55,5.4,99,9.63,0.0,1012.80,14.5
2018-09-24 09:30,50.6304466666667,-96.9807633333333,9.3,11.8,81,985.29,5.4,99,9.59,0.0,1012.54,14.5
2018-09-24 09:40,50.6304466666667,-96.980765,8.5,10.8,84,985.35,5.5,99,9.55,0.0,1012.59,14.5
2018-09-24 09:50,50.6304466666667,-96.980765,9.6,11.4,77,985.17,5.4,99,9.52,0.0,1012.42,14.5
2018-09-24 10:00,50.6304433333333,-96.980775,9.3,11.7,76,985.08,5.4,99,9.50,0.0,1012.32,192.6
2018-09-24 10:10,50.6304416666667,-96.9807666666667,9.4,11.7,74,984.93,5.5,99,9.53,0.0,1012.17,192.6
2018-09-24 10:20,50.6304433333333,-96.980765,9.2,11.2,73,985.05,5.4,99,9.56,0.0,1012.28,192.6
2018-09-24 10:30,50.630445,-96.9807683333333,9.9,12.6,72,984.90,5.5,99,9.57,0.0,1012.13,192.6
2018-09-24 10:40,50.6304433333333,-96.9807683333333,9.3,12.1,71,984.75,5.6,99,9.57,0.0,1011.98,192.6
2018-09-24 10:50,50.6304433333333,-96.98077,9.1,12.1,74,984.71,5.7,99,9.57,0.0,1011.93,192.6
2018-09-24 11:00,50.6304466666667,-96.9807716666667,7.3,9.7,71,984.66,5.7,99,9.57,0.0,1011.88,270.0
2018-09-24 11:10,50.6304483333333,-96.9807733333333,6.2,9.4,81,984.71,5.7,99,9.57,0.0,1011.92,270.0
2018-09-24 11:20,50.63045,-96.9807733333333,8.0,10.5,61,984.59,5.8,99,9.57,0.0,1011.80,270.0
2018-09-24 11:30,50.63045,-96.9807733333333,7.3,9.6,58,984.67,5.7,99,9.57,0.0,1011.88,270.0
2018-09-24 11:40,50.63045,-96.9807733333333,6.0,8.1,63,984.77,5.8,99,9.57,0.0,1011.98,270.0
2018-09-24 11:50,50.6304516666667,-96.9807733333333,4.9,7.5,59,984.80,5.8,99,9.55,0.0,1012.01,270.0
2018-09-24 12:00,50.6304516666667,-96.9807716666667,4.5,6.9,68,984.73,5.8,99,9.52,0.0,1011.94,347.4
2018-09-24 12:10,50.6304516666667,-96.9807716666667,4.0,6.1,54,984.61,5.8,99,9.52,0.0,1011.82,347.4
2018-09-24 12:20,50.630455,-96.9807433333333,4.1,7.0,69,984.59,5.8,99,9.52,0.0,1011.79,347.4
2018-09-24 12:30,50.6304483333333,-96.9807566666667,3.2,6.1,45,984.55,5.8,99,9.53,0.0,1011.75,347.4
2018-09-24 12:40,50.630415,-96.9807566666667,2.7,5.8,70,984.60,5.9,99,9.53,0.0,1011.79,347.4
2018-09-24 12:50,50.6304316666667,-96.9807483333333,2.9,5.3,44,984.72,5.9,99,9.53,0.0,1011.90,347.4
2018-09-24 13:00,50.6304616666667,-96.98077,0.8,2.6,11,984.78,5.9,99,9.52,0.0,1011.97,360.0
2018-09-24 13:10,50.6304566666667,-96.9807633333333,0.6,2.1,82,984.72,6.1,99,9.52,0.0,1011.89,360.0
2018-09-24 13:20,50.6304416666667,-96.98077,1.4,3.8,77,984.58,6.1,99,9.53,0.0,1011.76,360.0
2018-09-24 13:30,50.6304483333333,-96.9807683333333,3.3,5.5,43,984.39,6.1,99,9.53,0.0,1011.56,360.0
2018-09-24 13:40,50.6304516666667,-96.9807716666667,3.4,6.4,55,984.17,6.2,99,9.54,0.0,1011.32,360.0
2018-09-24 13:50,50.6304533333333,-96.980775,3.2,5.1,18,984.06,6.2,99,9.55,0.0,1011.21,360.0
2018-09-24 14:00,50.6304633333333,-96.9807633333333,4.2,5.5,323,983.99,6.0,99,9.52,0.0,1011.15,360.0
2018-09-24 14:10,50.63047,-96.9807783333333,3.8,4.9,305,984.06,5.7,99,9.46,0.0,1011.24,360.0
2018-09-24 14:20,50.630445,-96.9807733333333,3.6,4.8,298,984.08,5.8,99,9.40,0.0,1011.25,360.0
2018-09-24 14:30,50.6304583333333,-96.9807716666667,3.6,4.9,293,983.95,5.8,99,9.39,0.0,1011.11,360.0
2018-09-24 14:40,50.63046,-96.9807683333333,3.6,5.0,290,983.89,5.9,99,9.40,0.0,1011.05,360.0
2018-09-24 14:50,50.63046,-96.9807666666667,3.4,6.3,285,983.89,6.0,99,9.44,0.0,1011.05,360.0
2018-09-24 15:00,50.6304583333333,-96.9807666666667,3.7,5.9,295,983.90,6.0,99,9.48,0.0,1011.04,48.3
2018-09-24 15:10,50.6304533333333,-96.9807566666667,4.1,5.5,274,983.81,6.0,99,9.51,0.0,1010.95,48.3
2018-09-24 15:20,50.6304283333333,-96.9807816666667,3.6,6.1,272,983.79,6.1,99,9.53,0.0,1010.92,48.3
2018-09-24 15:30,50.6304583333333,-96.9807716666667,4.6,7.2,273,983.88,6.2,99,9.55,0.0,1011.00,48.3
2018-09-24 15:40,50.630455,-96.9807716666667,4.0,7.1,277,983.82,6.4,99,9.55,0.0,1010.93,48.3
2018-09-24 15:50,50.6304566666667,-96.9807716666667,4.6,6.5,269,983.74,6.3,99,9.55,0.0,1010.87,48.3
2018-09-24 16:00,50.63046,-96.9807883333333,4.1,6.3,285,983.54,6.5,98,9.59,0.0,1010.67,252.3
2018-09-24 16:10,50.6304533333333,-96.9807766666667,4.3,7.4,311,983.36,6.8,95,9.66,0.0,1010.46,252.3
2018-09-24 16:20,50.63044,-96.9807733333333,3.5,6.0,302,983.46,7.0,90,9.69,0.0,1010.55,252.3
2018-09-24 16:30,50.6304466666667,-96.980765,5.3,8.6,300,983.30,7.0,91,9.68,0.0,1010.39,252.3
2018-09-24 16:40,50.6304483333333,-96.9807683333333,6.3,9.9,310,983.25,6.9,91,9.78,0.0,1010.34,252.3
2018-09-24 16:50,50.6304483333333,-96.9807666666667,5.9,8.6,304,983.37,6.9,91,9.87,0.0,1010.46,252.3
2018-09-24 17:00,50.6304516666667,-96.9807783333333,4.7,7.3,296,983.39,6.9,90,9.84,0.0,1010.48,229.4
2018-09-24 17:10,50.6304483333333,-96.9807733333333,5.3,10.0,319,983.29,7.0,89,9.85,0.0,1010.37,229.4
2018-09-24 17:20,50.6304466666667,-96.9807683333333,5.1,8.9,326,983.26,7.1,89,9.93,0.0,1010.33,229.4
2018-09-24 17:30,50.6304483333333,-96.9807683333333,5.6,8.1,314,983.08,7.1,87,9.94,0.0,1010.14,229.4
2018-09-24 17:40,50.63047,-96.9807283333333,5.2,8.8,315,983.08,7.1,88,9.91,0.0,1010.14,229.4
2018-09-24 17:50,50.63044,-96.9807816666667,3.6,6.1,319,983.08,7.2,88,9.88,0.0,1010.12,229.4
2018-09-24 18:00,50.6304533333333,-96.9807566666667,5.1,9.7,322,983.17,7.3,87,9.85,0.0,1010.20,167.4
2018-09-24 18:10,50.6304466666667,-96.980755,5.3,8.6,319,983.27,7.4,87,9.85,0.0,1010.28,167.4
2018-09-24 18:20,50.6304533333333,-96.9807366666667,4.6,7.4,328,983.29,7.5,86,9.91,0.0,1010.30,167.4
2018-09-24 18:30,50.6304533333333,-96.980745,4.6,8.3,317,983.31,7.6,86,9.90,0.0,1010.32,167.4
2018-09-24 18:40,50.63045,-96.98075,6.1,10.4,315,983.23,7.6,86,9.85,0.0,1010.24,167.4
2018-09-24 18:50,50.6304533333333,-96.98075,4.2,7.7,312,983.29,7.6,86,9.80,0.0,1010.30,167.4
2018-09-24 19:00,50.6301166666667,-96.980795,5.2,10.6,297,983.26,7.8,85,9.77,0.1,1010.25,360.0
2018-09-24 19:10,50.63128,-96.9623233333333,4.4,9.4,346,983.29,8.0,83,10.37,4.2,1010.27,360.0
2018-09-24 19:20,50.6331633333333,-96.9490216666667,6.0,10.1,327,983.34,7.5,86,11.22,3.1,1010.35,360.0
2018-09-24 19:30,50.6331283333333,-96.949085,5.8,7.4,306,983.24,7.6,86,11.35,0.0,1010.24,360.0
2018-09-24 19:40,50.6330933333333,-96.9492433333333,6.5,9.4,320,983.19,7.7,86,11.38,0.0,1010.18,360.0
2018-09-24 19:50,50.633085,-96.9492483333333,4.8,7.8,325,983.27,7.6,86,11.41,0.0,1010.26,360.0
2018-09-24 20:00,50.633185,-96.9426066666667,3.9,6.3,354,983.22,7.6,86,11.46,1.5,1010.20,83.5
2018-09-24 20:10,50.628825,-96.933275,1.9,6.2,323,983.18,7.8,85,11.56,2.6,1010.15,83.5
2018-09-24 20:20,50.6223316666667,-96.9264333333333,3.1,5.3,276,983.21,8.5,84,11.57,2.8,1010.14,83.5
2018-09-24 20:30,50.61459,-96.9224366666667,3.4,5.8,290,983.27,8.6,83,11.50,2.9,1010.20,83.5
2018-09-24 20:40,50.622875,-96.96163,14.3,19.5,305,982.89,8.1,85,11.38,9.4,1009.83,83.5
2018-09-24 20:50,50.6303983333333,-96.98078,10.2,17.7,307,983.10,8.0,85,11.36,5.1,1010.04,83.5
2018-09-24 21:00,50.63044,-96.9807416666667,5.7,8.4,311,983.35,8.1,84,10.65,0.0,1010.28,131.7
2018-09-24 21:10,50.630445,-96.9807383333333,5.1,7.4,302,983.39,8.0,86,10.41,0.0,1010.35,131.7
2018-09-24 21:20,50.6304333333333,-96.980745,4.1,6.6,296,983.37,8.0,86,10.29,0.0,1010.33,131.7
2018-09-24 21:30,50.6304333333333,-96.98074,4.4,7.0,307,983.44,8.1,87,10.24,0.0,1010.40,131.7
2018-09-24 21:40,50.6304316666667,-96.9807416666667,5.1,7.7,307,983.52,8.0,88,10.20,0.0,1010.48,131.7
2018-09-24 21:50,50.6304316666667,-96.9807433333333,3.9,6.2,294,983.57,7.8,93,10.17,0.0,1010.54,131.7
2018-09-24 22:00,50.6304333333333,-96.980745,4.3,7.3,290,983.62,7.5,99,10.13,0.0,1010.60,360.0
2018-09-24 22:10,50.63042,-96.9807666666667,4.3,8.0,297,983.65,7.4,99,10.15,0.0,1010.60,360.0
2018-09-24 22:20,50.6304283333333,-96.98075,4.1,7.2,303,983.74,7.3,99,10.15,0.0,1010.69,360.0
2018-09-24 22:30,50.6304333333333,-96.9807516666667,3.8,5.7,284,983.87,7.3,99,10.14,0.0,1010.84,360.0
2018-09-24 22:40,50.6304316666667,-96.9807533333333,4.1,6.3,281,983.89,7.4,99,10.14,0.0,1010.87,360.0
2018-09-24 22:50,50.63043,-96.9807516666667,3.9,6.0,276,983.97,7.4,99,10.16,0.0,1010.95,360.0
2018-09-24 23:00,50.63043,-96.9807516666667,4.3,7.0,281,984.07,7.3,99,10.16,0.0,1011.06,263.5
2018-09-24 23:10,50.63043,-96.9807516666667,2.9,4.4,284,984.17,7.3,99,10.16,0.0,1011.16,263.5
2018-09-24 23:20,50.63043,-96.9807516666667,2.6,4.2,278,984.31,7.2,99,10.17,0.0,1011.31,263.5
2018-09-24 23:30,50.63043,-96.98075,3.3,5.7,284,984.40,7.2,99,10.21,0.0,1011.41,263.5
2018-09-24 23:40,50.6304283333333,-96.9807516666667,3.2,5.1,275,984.51,7.3,99,10.25,0.0,1011.53,263.5
